Flag for Germany Weather past 2 weeks in Sankt Ingbert, Saarland, Germany

Now
47 °F

Low clouds.


Feels Like: 43 °F
Forecast: 39 / 42 °F
Wind: 9 mph from Southwest

Location: Saarbruecken / Ensheim

Current Time: Dec 19, 2014 at 9:11:26 AM

Latest Report: Dec 19, 2014 at 8:00 AM


Visibility: 5 mi

Pressure: 30.11 "Hg

Humidity: 96%

Dew point: 46 °F

Location of Sankt IngbertLocation

Historic Weather in Sankt Ingbert — Graph

°F

Sankt Ingbert temperature yesterday

Maximum temperature yesterday: 53 °F (at 5:00 PM)
Minimum temperature yesterday: 42 °F (at 12:00 AM)
Average temperature yesterday: 48 °F

Past Weeks' High & Low Weather Summary

 TemperatureHumidityPressure
High53 °F (Dec 18, 5:00 PM)100% (Dec 4, 9:00 AM)30.46 "Hg (Dec 4, 9:00 AM)
Low32 °F (Dec 9, 5:00 AM)72% (Dec 7, 3:00 PM)29.70 "Hg (Dec 12, 5:00 PM)
Average40 °F95%30.07 "Hg
* Reported Dec 4 8:00 AM — Dec 19 8:00 AM, Sankt Ingbert, Weather by CustomWeather, © 2014

Note: Actual official high and low records may vary slightly from our data, if they occured in-between our weather recording intervals... More about our weather records

Advertising

Sankt Ingbert weather history for previous 24 hours

 ConditionsComfort  
Time TempWeatherWind HumidityBarometerVisibility
8:00 AM
Dec 19
47 °FLow clouds.9 mph96%30.11 "Hg5 mi
7:00 AM47 °FLow clouds.10 mph94%30.12 "Hg5 mi
6:00 AM47 °FDrizzle. Low clouds.9 mph97%30.12 "Hg8 mi
5:00 AM48 °FLight rain. Low clouds.9 mph95%30.11 "Hg7 mi
4:00 AM49 °FLight rain. Low clouds.7 mph96%30.13 "Hg9 mi
3:00 AM49 °FOvercast.10 mph94%30.13 "Hg19 mi
2:00 AM49 °FLow clouds.9 mph94%30.14 "Hg19 mi
1:00 AM49 °FLight rain. Low clouds.10 mph96%30.14 "Hg9 mi
12:00 AM50 °FOvercast.12 mph86%30.15 "Hg22 mi
11:00 PM
Dec 18
50 °FOvercast.10 mph89%30.14 "Hg22 mi
10:00 PM51 °FOvercast.12 mph89%30.14 "Hg22 mi
9:00 PMN/APassing clouds.10 mphN/AN/A1 mi
8:00 PM51 °FLow clouds.9 mph95%30.11 "Hg7 mi
7:00 PM53 °FDrizzle. Low clouds.10 mph97%30.09 "Hg5 mi
6:00 PM53 °FDrizzle. Low clouds.10 mph99%30.07 "Hg3 mi
5:00 PM53 °FLow clouds.9 mph99%30.05 "Hg3 mi
4:00 PM52 °FLow clouds.9 mph100%30.03 "Hg4 mi
3:00 PM52 °FDrizzle. Low clouds.8 mph99%30.01 "Hg2 mi
2:00 PM51 °FDrizzle. Low clouds.9 mph100%30.00 "Hg2 mi
1:00 PM50 °FRain. Low clouds.8 mph100%30.00 "Hg2 mi
12:00 PM49 °FRain. Low clouds.8 mph100%30.01 "Hg2 mi
11:00 AM48 °FDrizzle. Low clouds.8 mph100%30.00 "Hg2 mi
10:00 AM47 °FLow clouds.8 mph100%29.99 "Hg2 mi
9:00 AM46 °FDrizzle. Low clouds.6 mph100%29.99 "Hg2 mi
Weather by CustomWeather, © 2014

See weather overviewHow to use our weather pages